STARLINK-35916 (66504 NORAD) Tracking and Keplerian Element Data

This shows tracking and keplerian element data for the satellite.

Feedback or suggestion? Click here.




ElementValue
Catalog66504
NameSTARLINK-35916
Epoch Orbit661
Epoch Day353.66848025
Epoch Year2025
RAAN86.7166
Inclination43.0015
Eccentricity0.0001901
Argument of Perigee257.3252
Mean Anonmoly102.7392
Mean Motion15.40730304
Decay Rate0.00031139
L11 66504U 25263V 25353.66848025 .00031139 00000+0 74889-3 0 9991
L22 66504 43.0015 86.7166 0001901 257.3252 102.7392 15.40730304 6611



Live tracking and technical data element details for STARLINK-35916 (NORAD 66504). STARLINK-35916 can be tracked NOW for your location showing map with azimuth and elevation plus other details from your city location.







IsCatalogInMostPopularTable: catalog: 66504, numindb: 8
Update: records affected: 1



GetName: 66504 STARLINK-35916

Hit Count: updated at: Tue, 21 Apr 2026 20:18:58 GMT